Tracking 30105 objects as of 24-Jan-2025
HD Live streaming from Space Station
objects crossing your sky now

COSMOS 1275 DEB

Track COSMOS 1275 DEB now!
10-day predictions


NORAD ID: 13815
Int'l Code: 1981-053HN
Perigee: 888.2 km
Apogee: 1,050.3 km
Inclination: 83.0 °
Period: 104.3 minutes
Semi major axis: 7340 km
RCS: 0.0181 m2 (small)
Launch date: June 4, 1981
Source: Commonwealth of Independent States (former USSR) (CIS)
Launch site: PLESETSK MISSILE AND SPACE COMPLEX (PKMTR)

Note: This is SATELLITE DEBRIS
Your satellite tracking list
Your tracking list is empty




NASA's NSSDC Master Catalog

Two Line Element Set (TLE):
1 13815U 81053HK  25024.07612883  .00002619  00000-0  23751-2 0  9991
2 13815  83.0224 250.1624 0110445  68.9636  83.8962 13.80502193 99514
Source of the keplerian elements: AFSPC